Максимкин Яр

Россия / Томская область     58°40′44″N   86°49′13″E
темп.,
°C
ветер,
м/с
пор.,
м/с
влажн.,
%
обл.,
%
осадки,
мм/ч
давл.,
гПа
погр.,
м
17 мая, пн
пн1701:00+6в2661100 0.0 1015162
04:00+5вюв2359100 0.0 101576
07:00+5в2361100 0.0 1015124
10:00+6юв2356100 0.0 1016244
13:00+7юв225396 0.0 1016449
16:00+13сз014854 0.0 10141277
19:00+11ссз1162100 0.0 101470
22:00+8вюв2270100 0.0 101342
18 мая, вт
вт1801:00+7юв2573100 0.0 1012115
04:00+7вюв2480100 0.1 1010110
07:00+6в4993100 1.5 1009352
10:00+6в51194100 2.1 1006542
13:00+6всв51093100 5.0 1006603
16:00+7св2790100 3.2 1007538
19:00+10з2379100 3.2 1007375
22:00+6с228083 0.0 100827
19 мая, ср
ср1901:00+3с31174100 0.0 1010252
04:00+1с310740 0.0 1011299
07:00+2с511650 0.0 1012518
10:00+6с68405 0.0 10121555
13:00+8с68335 0.0 10112150
16:00+8ссз6929100 0.0 10122753
19:00+7ссз5935100 0.0 10122690
22:00+2ссз39495 0.0 1013300
20 мая, чт
чт2001:00−1сз310615 0.0 1014323
04:00−1сз411620 0.0 1014433
07:00+1ссз510530 0.0 1014638
10:00+5ссз57365 0.0 10141720
13:00+8ссз5630100 0.0 10132387
16:00+10ссз4629100 0.0 10132586
19:00+10ссз35335 0.0 10142114
22:00+4сз35534 0.0 101584
21 мая, пт
пт2101:00+2ссз22595 0.0 101625
04:000сз22635 0.0 101713
07:00+4ссв12501 0.0 1017137
10:00+11ссв113456 0.0 1017861
13:00+15сз11275 0.0 10171938
16:00+15зсз12247 0.0 10172316
19:00+14з12265 0.0 10162442
22:00+9сз1145100 0.0 101710